[[{"header":{"parameterUnit":"m.s-1","parameterCategory":1,"la1":30.2991,"la2":30.254,"lo1":-89.0895,"lo2":-89.0444,"dy":0.0017,"dx":0.0017,"nx":28,"ny":28,"refTime":"2024-05-14T03:00:00:Z","depth":0,"parameterNumber":2,"parameterNumberName":"U-component_of_WINDS"},"data":[0,0,0,0,0,0,0,0,0,0,0,0,0,0,0,0,0,0,0,0,0,0,0,0,0,0,0,0,0,0,0,0,0,0,0,0,0,0,0,0,0,0,0,0,0,0,0,0,0,0,0,0,0,0,0,0,0,0,-7.6437,-7.6438,0,-7.6562,-7.6563,-7.6565,-7.6376,-7.637,-7.6363,-7.6357,-7.6488,-7.6498,-7.6507,0,0,0,0,0,0,0,0,0,0,0,0,0,-7.604,-7.6048,-7.6437,-7.6439,-7.644,-7.6562,-7.6563,-7.6565,-7.6378,-7.637,-7.6362,-7.6354,-7.6485,-7.6497,-7.6508,0,0,0,0,0,0,0,0,0,0,0,0,0,-7.6193,-7.6051,-7.6437,-7.6361,-7.6356,-7.6561,-7.6563,-7.6566,-7.6379,-7.6369,-7.636,-7.635,-7.6482,-7.6496,-7.651,-7.6796,0,0,-7.6554,-7.656,0,0,0,0,0,0,0,0,-7.6185,-7.6208,-7.6371,-7.6367,-7.6361,-7.6443,-7.6471,-7.6643,-7.6382,-7.6371,-7.6357,-7.6346,-7.6482,-7.6495,-7.6541,-7.6802,-7.6808,-7.6555,-7.6564,-7.657,-7.6574,0,0,0,0,0,0,0,-7.6174,-7.6202,-7.6486,-7.6373,-7.6367,-7.6322,-7.6333,-7.6503,-7.648,-7.6371,-7.6357,-7.6374,-7.6477,-7.6527,-7.6542,-7.681,-7.6555,-7.6568,-7.6576,-7.6582,-7.7313,-7.7323,0,0,0,0,0,0,-7.6173,-7.6194,-7.6482,-7.649,-7.6247,-7.6337,-7.6349,-7.6427,-7.6478,-7.6476,-7.6383,-7.6365,-7.6507,-7.6526,-7.6546,-7.6884,-7.657,-7.6584,-7.6592,-7.7302,-7.7315,-7.7327,0,0,0,0,0,0,-7.6165,-7.62,-7.6477,-7.6339,-7.637,-7.6355,-7.6443,-7.6435,-7.6484,-7.6487,-7.6482,-7.6438,-7.65,-7.6526,-7.6735,-7.6886,-7.659,-7.6603,-7.729,-7.7306,-7.7321,-7.7562,0,0,0,0,0,0,-7.6154,-7.6198,-7.6306,-7.6342,-7.6379,-7.6664,-7.6452,-7.6444,-7.6509,-7.6488,-7.6537,-7.6536,-7.6495,-7.6715,-7.675,-7.69,-7.6614,-7.7276,-7.7297,-7.7316,-7.7541,-7.7585,-7.7622,0,0,0,0,0,-7.6141,-7.637,-7.6313,-7.6348,-7.6513,-7.6673,-7.6693,-7.664,-7.6522,-7.6631,-7.6632,-7.6534,-7.6864,-7.6738,-7.6775,-7.6933,-7.7266,-7.7291,-7.7314,-7.7523,-7.7576,-7.7621,0,0,0,0,0,0,-7.6353,-7.6373,-7.631,-7.6558,-7.6615,-7.6641,-7.6776,-7.6699,-7.6791,-7.6767,-7.6699,-7.6712,-7.6936,-7.6955,-7.6814,-7.7213,-7.7046,-7.7079,-7.7191,-7.7242,-7.7282,-7.7272,-7.6626,0,0,0,0,0,-7.6428,-7.6556,-7.6567,-7.6785,-7.6817,-7.6792,-7.686,-7.6814,-7.6871,-7.6894,-7.6911,-7.6971,-7.7088,-7.7166,-7.7274,-7.7544,-7.7552,-7.7671,-7.7712,-7.7745,-7.7774,-7.7917,-7.797,-7.7406,-7.7406,-7.7406,0,0,-7.6586,-7.6613,-7.6697,-7.6828,-7.6867,-7.7001,-7.6814,-7.6963,-7.7062,-7.6917,-7.7115,-7.713,-7.7193,-7.7433,-7.754,-7.7457,-7.7932,-7.7776,-7.7803,-7.7813,-7.7948,-7.8001,-7.8049,-7.7423,-7.742,-7.7417,0,0,-7.694,-7.6974,-7.7158,-7.7201,-7.7262,-7.7244,-7.7289,-7.7328,-7.7332,-7.7529,-7.7423,-7.7541,-7.7744,-7.7792,-7.7844,-7.8219,-7.8132,-7.8257,-7.8468,-7.8609,-7.8654,-7.8693,-7.8825,-7.8874,-7.8285,-7.8286,-7.8287,0,-7.7128,-7.7324,-7.7263,-7.742,-7.7481,-7.7356,-7.7542,-7.7587,-7.7682,-7.7727,-7.7632,-7.7884,-7.7917,-7.8167,-7.8259,-7.8305,-7.8354,-7.8249,-7.8652,-7.8691,-7.8726,-7.8852,-7.8902,-7.8301,-7.8299,-7.8297,-7.8296,0,-7.7552,-7.769,-7.7832,-7.7924,-7.8002,-7.8173,-7.8139,-7.8224,-7.8173,-7.8166,-7.8369,-7.8405,-7.8518,-7.8574,-7.8526,-7.8818,-7.8764,-7.8663,-7.8493,-7.8795,-7.8912,-7.896,-7.8322,-7.8316,-7.8312,-7.8308,0,0,-7.8041,-7.8098,-7.8151,-7.8191,-7.8251,-7.8357,-7.8523,-7.8632,-7.8707,-7.8777,-7.8915,-7.909,-7.8996,-7.9055,-7.9012,-7.9136,-7.9429,-7.9018,-7.9019,-7.9092,-7.9753,-7.9828,-7.9884,-7.9373,-7.9382,-7.9389,-7.9747,0,-7.8393,-7.8678,-7.8629,-7.8906,-7.9033,-7.8917,-7.9062,-7.9115,-7.9114,-7.9222,-7.9221,-7.9345,-7.9213,-7.9247,-7.9365,-7.9369,-7.9561,-7.9343,-7.9501,-7.9507,-7.9486,-7.9946,-8.0025,-8.0361,-7.9793,-7.98,-7.9806,0,-7.8841,-7.8926,-7.9216,-7.9255,-7.9306,-7.9437,-7.9533,-7.9639,-7.9697,-7.9687,-7.9754,-7.9687,-7.9854,-7.9685,-7.9914,-7.9767,-7.9829,-7.9841,-7.9853,-7.9863,-7.9673,-7.9967,-8.0466,-8.0516,-7.9878,-7.9872,-7.9867,0,-7.9166,-7.9354,-7.9551,-7.959,-7.9641,-7.9735,-7.9762,-7.981,-7.9879,-7.9964,-8.0008,-8.0113,-8.017,-8.0253,-8.0217,-8.0097,-8.0454,-8.028,-8.045,-8.0451,-8.0528,-8.0523,-8.1043,-8.0573,-8.0572,-8.0571,-8.057,0,-7.9563,-7.9745,-7.9698,-7.9819,-8.002,-7.9962,-8.0163,-8.0175,-8.0219,-8.0342,-8.025,-8.0367,-8.0313,-8.0428,-8.0401,-8.0595,-8.0622,-8.0619,-8.061,-8.0626,-8.0627,-8.0664,-8.0639,-8.0584,-8.0582,-8.0579,-8.0577,0,-7.9959,-7.9935,-8.0142,-8.0174,-8.0186,-8.0333,-8.036,-8.0474,-8.0466,-8.0623,-8.0656,-8.0645,-8.0774,-8.0747,-8.0891,-8.0873,-8.1116,-8.1078,-8.1096,-8.1086,-8.1256,-8.124,-8.1816,-8.1889,-8.1374,-8.1379,-8.1383,0,-8.0212,-8.0349,-8.0395,-8.047,-8.0503,-8.0625,-8.0694,-8.0644,-8.0721,-8.0798,-8.0904,-8.1025,-8.1118,-8.1332,-8.1337,-8.1446,-8.141,-8.1604,-8.1425,-8.1438,-8.1411,-8.1402,-8.1415,-8.1639,-8.1645,-8.165,-8.1653,0,-8.0664,-8.0646,-8.0749,-8.085,-8.0935,-8.1012,-8.108,-8.1147,-8.1103,-8.1194,-8.1325,-8.1398,-8.1544,-8.1666,-8.1767,-8.1795,-8.1718,-8.171,-8.1755,-8.1772,-8.1776,-8.1774,-8.119,-8.1696,-8.1692,-8.1689,-8.1687,-8.1685,-8.0995,-8.1111,-8.1161,-8.128,-8.1326,-8.1392,-8.15,-8.1506,-8.1614,-8.1727,-8.1692,-8.1842,-8.1898,-8.2026,-8.2066,-8.2183,-8.211,-8.2175,-8.2191,-8.2208,-8.2228,-8.1759,-8.2202,-8.22,-8.2199,-8.2198,-8.2197,0,-8.144,-8.1467,-8.1577,-8.1674,-8.1768,-8.1687,-8.1759,-8.1843,-8.1975,-8.2033,-8.2127,-8.2278,-8.2396,-8.2412,-8.2524,-8.2615,-8.2582,-8.2646,-8.2637,-8.2645,-8.2287,-8.2236,-8.267,-8.267,-8.267,-8.267,-8.2669,-8.2669,-8.1682,-8.1873,-8.1862,-8.2076,-8.2102,-8.2246,-8.2294,-8.2355,-8.2401,-8.2573,-8.267,-8.2679,-8.2721,-8.2835,-8.294,-8.2942,-8.2987,-8.3064,-8.3052,-8.2717,-8.267,-8.2625,-8.2577,-8.3075,-8.3075,-8.3399,-8.3403,-8.3405]},{"header":{"parameterUnit":"m.s-1","parameterCategory":1,"la1":30.2991,"la2":30.254,"lo1":-89.0895,"lo2":-89.0444,"dy":0.0017,"dx":0.0017,"nx":28,"ny":28,"refTime":"2024-05-14T03:00:00:Z","depth":0,"parameterNumber":3,"parameterNumberName":"V-component_of_WINDS"},"data":[0,0,0,0,0,0,0,0,0,0,0,0,0,0,0,0,0,0,0,0,0,0,0,0,0,0,0,0,0,0,0,0,0,0,0,0,0,0,0,0,0,0,0,0,0,0,0,0,0,0,0,0,0,0,0,0,0,0,0.9167,0.9166,0,0.907,0.9069,0.9068,0.9022,0.9022,0.9022,0.9022,0.8919,0.8916,0.8914,0,0,0,0,0,0,0,0,0,0,0,0,0,0.9309,0.9307,0.9167,0.9166,0.9164,0.907,0.9069,0.9068,0.9022,0.9022,0.9022,0.9022,0.892,0.8917,0.8913,0,0,0,0,0,0,0,0,0,0,0,0,0,0.9233,0.9306,0.9167,0.913,0.9126,0.9071,0.9069,0.9067,0.9022,0.9022,0.9022,0.9022,0.8921,0.8917,0.8913,0.8886,0,0,0.89,0.8898,0,0,0,0,0,0,0,0,0.9238,0.9228,0.9137,0.9133,0.9128,0.9058,0.9081,0.9006,0.9022,0.9061,0.9022,0.9022,0.8965,0.8957,0.8939,0.8881,0.8876,0.89,0.8897,0.8895,0.8894,0,0,0,0,0,0,0,0.9243,0.9232,0.9128,0.9136,0.913,0.9118,0.9107,0.9067,0.9014,0.9058,0.9054,0.9044,0.8963,0.8943,0.8936,0.8875,0.89,0.8896,0.8894,0.8892,0.8791,0.879,0,0,0,0,0,0,0.9255,0.9237,0.9132,0.9126,0.9184,0.9115,0.9103,0.908,0.9014,0.9004,0.9044,0.9042,0.895,0.8941,0.8932,0.8896,0.8896,0.8892,0.8889,0.8791,0.879,0.879,0,0,0,0,0,0,0.9258,0.9246,0.9135,0.918,0.9165,0.9113,0.9087,0.9079,0.9059,0.9004,0.8994,0.9034,0.895,0.8938,0.8898,0.8892,0.889,0.8886,0.8791,0.8791,0.879,0.8824,0,0,0,0,0,0,0.9262,0.9247,0.9237,0.918,0.9163,0.9104,0.9087,0.9077,0.9052,0.9049,0.8991,0.8982,0.8949,0.8905,0.8894,0.8886,0.8883,0.8791,0.8791,0.879,0.8823,0.8825,0.8827,0,0,0,0,0,0.9267,0.9249,0.9236,0.9224,0.9149,0.9103,0.9093,0.9057,0.9052,0.9041,0.9006,0.8984,0.8895,0.8901,0.8889,0.888,0.8791,0.8791,0.8791,0.8823,0.8825,0.8827,0,0,0,0,0,0,0.9304,0.9241,0.9226,0.9189,0.9152,0.9096,0.908,0.906,0.9023,0.9021,0.8977,0.8964,0.8928,0.89,0.8908,0.885,0.8841,0.8838,0.887,0.8871,0.8873,0.888,0.8879,0,0,0,0,0,0.9308,0.9277,0.9223,0.9196,0.9178,0.9133,0.9112,0.9087,0.9047,0.903,0.8992,0.8952,0.8916,0.8892,0.8855,0.882,0.8806,0.8807,0.8809,0.8811,0.8808,0.8788,0.8788,0.8789,0.8789,0.8789,0,0,0.9315,0.9277,0.926,0.9202,0.9171,0.914,0.912,0.9087,0.9063,0.9025,0.8985,0.8956,0.8909,0.8871,0.8853,0.8846,0.8806,0.881,0.8812,0.8809,0.8788,0.8788,0.8788,0.8789,0.8789,0.8789,0,0,0.9313,0.9281,0.9255,0.9225,0.9178,0.9148,0.9142,0.9089,0.9069,0.9029,0.9,0.897,0.8908,0.8876,0.8851,0.8839,0.8818,0.8828,0.8836,0.8817,0.8817,0.8817,0.8812,0.8811,0.8826,0.8826,0.8826,0,0.9327,0.928,0.9244,0.9213,0.9189,0.9155,0.9128,0.91,0.9043,0.9027,0.9021,0.8943,0.8909,0.8864,0.8861,0.8843,0.8834,0.8834,0.882,0.882,0.8819,0.8814,0.8813,0.8828,0.8828,0.8828,0.8828,0,0.93,0.9268,0.9253,0.9201,0.9175,0.9146,0.9105,0.9083,0.9061,0.9032,0.8992,0.895,0.8905,0.8892,0.887,0.8844,0.8842,0.8829,0.8819,0.8821,0.8816,0.8814,0.883,0.883,0.8829,0.8829,0,0,0.9316,0.9247,0.9242,0.9218,0.9165,0.9139,0.9109,0.9067,0.9048,0.9011,0.8984,0.8933,0.8922,0.8894,0.8868,0.8851,0.8845,0.884,0.8838,0.8842,0.8814,0.8824,0.8822,0.8831,0.8831,0.883,0.8818,0,0.9306,0.9252,0.922,0.9179,0.9149,0.9117,0.9091,0.9056,0.9028,0.8998,0.8966,0.8931,0.8918,0.8902,0.8884,0.885,0.8838,0.885,0.8805,0.8804,0.8817,0.8819,0.8829,0.8819,0.8816,0.8815,0.8815,0,0.9286,0.9252,0.9208,0.916,0.9146,0.9124,0.9083,0.9054,0.9014,0.8995,0.8965,0.894,0.8907,0.89,0.8854,0.8862,0.8842,0.8823,0.8822,0.8815,0.8809,0.8812,0.8815,0.8814,0.8811,0.8812,0.8812,0,0.9302,0.9245,0.9211,0.9192,0.9135,0.9121,0.9096,0.9055,0.9032,0.8996,0.8981,0.8941,0.8918,0.8888,0.8852,0.8851,0.8809,0.88,0.8792,0.8792,0.8783,0.8784,0.8782,0.8771,0.8772,0.8772,0.8772,0,0.9294,0.9268,0.9218,0.9197,0.9168,0.9132,0.9103,0.9076,0.9041,0.9014,0.8984,0.8959,0.8914,0.8883,0.8855,0.8821,0.8811,0.8794,0.8787,0.8797,0.8799,0.8782,0.8781,0.8771,0.8771,0.8771,0.8771,0,0.9305,0.9271,0.9233,0.9183,0.917,0.9151,0.9108,0.9087,0.9058,0.9025,0.9015,0.897,0.8933,0.8895,0.8844,0.8825,0.8791,0.8781,0.8805,0.8801,0.8795,0.8796,0.8782,0.8778,0.8771,0.8771,0.8771,0,0.9302,0.9282,0.9231,0.9212,0.9189,0.9158,0.9135,0.9098,0.9075,0.9029,0.9013,0.8974,0.8941,0.8883,0.8845,0.8806,0.8794,0.8792,0.8788,0.8799,0.8794,0.8795,0.8793,0.8793,0.8794,0.8794,0.8794,0,0.9299,0.9284,0.9252,0.9216,0.9189,0.9158,0.9126,0.9111,0.9068,0.9044,0.9007,0.8981,0.8931,0.8892,0.8849,0.8823,0.8801,0.8796,0.8792,0.8801,0.8816,0.8808,0.8809,0.8796,0.8796,0.8796,0.8796,0.8795,0.9303,0.9284,0.9246,0.9212,0.9185,0.9156,0.9134,0.9104,0.9072,0.9029,0.901,0.8972,0.8933,0.8873,0.8848,0.8817,0.8811,0.8805,0.8804,0.8803,0.8805,0.8822,0.8809,0.8809,0.8809,0.8809,0.8809,0,0.9298,0.9273,0.9243,0.9199,0.9173,0.9157,0.9121,0.91,0.9068,0.9034,0.9002,0.896,0.8923,0.8883,0.8844,0.8827,0.8816,0.8818,0.8818,0.8812,0.8813,0.882,0.8827,0.8827,0.8827,0.8827,0.8827,0.8827,0.9293,0.9261,0.9241,0.9195,0.9169,0.9134,0.9114,0.9087,0.906,0.9015,0.8985,0.896,0.8923,0.8881,0.8847,0.8836,0.8822,0.8827,0.8813,0.8814,0.8812,0.8811,0.8818,0.8824,0.8824,0.8815,0.8815,0.8815]}]]